Погода в Ла-Гуайре

Венесуэла     10°36′07″N   66°55′53″W
темп.,
°C
ветер,
м/с
пор.,
м/с
влажн.,
%
обл.,
%
осадки,
мм/ч
давл.,
гПа
погр.,
м
9 мая, вс
вс923:00+19ю1294100 2.0 101784
02:00+18вюв119589 2.8 101537
05:00+18юв249597 0.6 1016151
08:00+18ююв3696100 2.4 1018348
11:00+20юв3591100 0.8 1018527
14:00+22ююв3680100 1.8 1015888
17:00+20юв249088 2.4 1015361
20:00+19юв2290100 3.8 101752
10 мая, пн
пн1023:00+18ююв239376 0.3 101872
02:00+18ююв2395100 0.4 1016118
05:00+18ююв239283 0.1 101679
08:00+20ююв23818 0.1 1017237
11:00+25юв26445 0.0 10161287
14:00+26ююв14485 0.0 10131525
17:00+23юз147287 0.1 1013458
20:00+19ю23843 0.4 101590
11 мая, вт
вт1123:00+19ююв228754 0.3 101758
02:00+18ююв238931 0.4 101681
05:00+17ююв238838 0.0 101668
08:00+21ююв23765 0.0 1017368
11:00+25ююз136018 0.1 10161449
14:00+24юз146755 1.9 10141148
17:00+22ююз138480 2.3 1013382
20:00+20ююв239181 3.9 1016116
12 мая, ср
ср1223:00+19ююв229324 0.6 101776
02:00+18ююв23949 0.8 101685
05:00+18ююв2393100 0.1 101675
08:00+20ююв2384100 0.1 1017220
11:00+25в136143 0.0 10161203
14:00+24юз2472100 0.5 1014886
17:00+23ююз138176 1.6 1013890
20:00+19ююв22915 1.9 101582
13 мая, чт
чт1323:00+19ююв23945 0.0 101769
02:00+18ююв229193 0.1 101673
05:00+18ююв2290100 0.1 101664
08:00+21юв238170 0.1 1017292
11:00+25юв13515 0.0 10171237
14:00+26ю2448100 0.0 10141735
17:00+24юз146286 0.0 1013519
20:00+20ююв227711 0.0 101561